�������l�o���
Date,Time,MP-1(��Sv/h),MP-2(��Sv/h),MP-3(��Sv/h),MP-4(��Sv/h),MP-5(��Sv/h),MP-6(��Sv/h),MP-7(��Sv/h),MP-8(��Sv/h),����,����(m/s),���J
2018/08/27,00:00,0.868,1.274,0.899,1.604,1.172,0.476,0.845,0.795,�k��,0.9,��
2018/08/27,00:10,0.869,1.274,0.900,1.605,1.174,0.477,0.844,0.794,�k��,0.6,��
2018/08/27,00:20,0.869,1.276,0.899,1.605,1.172,0.477,0.844,0.796,���쐼,1.2,��
2018/08/27,00:30,0.869,1.273,0.901,1.606,1.173,0.477,0.843,0.793,�쐼,0.6,��
2018/08/27,00:40,0.869,1.273,0.899,1.606,1.174,0.477,0.846,0.796,�쐼,2.3,��
2018/08/27,00:50,0.869,1.273,0.899,1.608,1.175,0.475,0.844,0.795,�쐼,3.4,��
2018/08/27,01:00,0.870,1.275,0.901,1.606,1.175,0.477,0.845,0.795,���쐼,1.5,��
2018/08/27,01:10,0.868,1.273,0.900,1.605,1.174,0.478,0.844,0.795,���k��,2.0,��
2018/08/27,01:20,0.869,1.274,0.898,1.607,1.174,0.477,0.843,0.796,�k�k��,2.2,��
2018/08/27,01:30,0.870,1.273,0.897,1.606,1.173,0.479,0.844,0.797,-,CALM,��
2018/08/27,01:40,0.870,1.276,0.899,1.602,1.172,0.477,0.845,0.795,��,2.9,��
2018/08/27,01:50,0.869,1.274,0.898,1.605,1.175,0.477,0.846,0.795,���k��,1.7,��
2018/08/27,02:00,0.868,1.270,0.898,1.608,1.174,0.477,0.844,0.795,�k�k��,1.2,��
2018/08/27,02:10,0.870,1.272,0.901,1.606,1.174,0.479,0.847,0.796,�k,1.9,��
2018/08/27,02:20,0.871,1.272,0.902,1.608,1.172,0.477,0.845,0.797,�k,2.8,��
2018/08/27,02:30,0.871,1.275,0.900,1.606,1.172,0.479,0.844,0.793,�k,3.4,��
2018/08/27,02:40,0.870,1.273,0.899,1.607,1.173,0.478,0.845,0.796,�k,2.8,��
2018/08/27,02:50,0.870,1.275,0.899,1.606,1.172,0.478,0.845,0.795,�k��,2.0,��
2018/08/27,03:00,0.869,1.272,0.900,1.606,1.175,0.479,0.845,0.795,�k��,2.6,��
2018/08/27,03:10,0.867,1.274,0.900,1.607,1.174,0.478,0.844,0.795,�k�k��,2.0,��
2018/08/27,03:20,0.867,1.275,0.898,1.606,1.172,0.477,0.845,0.796,���k��,1.7,��
2018/08/27,03:30,0.867,1.273,0.898,1.607,1.173,0.478,0.845,0.796,���쓌,2.3,��
2018/08/27,03:40,0.870,1.273,0.899,1.605,1.172,0.478,0.845,0.796,���쓌,2.6,��
2018/08/27,03:50,0.867,1.275,0.899,1.608,1.173,0.476,0.844,0.796,�쓌,3.3,��
2018/08/27,04:00,0.867,1.275,0.898,1.606,1.175,0.475,0.844,0.795,-,CALM,��
2018/08/27,04:10,0.868,1.271,0.898,1.603,1.172,0.476,0.844,0.795,��,0.8,��
2018/08/27,04:20,0.865,1.275,0.897,1.606,1.173,0.477,0.844,0.794,��쓌,0.6,��
2018/08/27,04:30,0.866,1.271,0.898,1.604,1.173,0.476,0.844,0.795,�k�k��,2.3,��
2018/08/27,04:40,0.866,1.273,0.900,1.604,1.171,0.477,0.844,0.795,�k,2.8,��
2018/08/27,04:50,0.868,1.272,0.898,1.608,1.172,0.477,0.845,0.795,�k�k��,2.9,��
2018/08/27,05:00,0.868,1.273,0.898,1.607,1.171,0.477,0.844,0.795,�k�k��,2.9,��
2018/08/27,05:10,0.867,1.271,0.899,1.607,1.173,0.477,0.844,0.796,�k��,3.3,��
2018/08/27,05:20,0.866,1.275,0.897,1.608,1.171,0.477,0.844,0.795,�k�k��,2.0,��
2018/08/27,05:30,0.867,1.272,0.900,1.604,1.167,0.474,0.843,0.795,�k�k��,2.0,��
2018/08/27,05:40,0.867,1.272,0.899,1.604,1.172,0.475,0.845,0.795,�k,2.2,��
2018/08/27,05:50,0.866,1.273,0.899,1.603,1.170,0.475,0.844,0.797,�k��,1.1,��
2018/08/27,06:00,0.868,1.272,0.898,1.605,1.171,0.475,0.845,0.793,�k,0.9,��
2018/08/27,06:10,0.868,1.273,0.898,1.605,1.173,0.477,0.844,0.795,��,0.6,��
2018/08/27,06:20,0.868,1.274,0.898,1.606,1.172,0.476,0.842,0.795,��쐼,1.2,��
2018/08/27,06:30,0.867,1.274,0.899,1.603,1.171,0.478,0.844,0.796,��쐼,1.1,��
2018/08/27,06:40,0.868,1.275,0.898,1.605,1.173,0.476,0.845,0.795,��쐼,0.9,��
2018/08/27,06:50,0.867,1.272,0.897,1.607,1.170,0.476,0.844,0.795,��쐼,0.9,��
2018/08/27,07:00,0.866,1.272,0.898,1.605,1.174,0.476,0.846,0.794,�쓌,1.2,��
2018/08/27,07:10,0.868,1.273,0.898,1.606,1.174,0.477,0.843,0.795,��쐼,0.9,��
2018/08/27,07:20,0.868,1.272,0.895,1.607,1.172,0.475,0.845,0.795,��,0.6,��
2018/08/27,07:30,0.868,1.275,0.897,1.603,1.173,0.477,0.846,0.793,��,0.9,��
2018/08/27,07:40,0.868,1.273,0.898,1.604,1.172,0.476,0.843,0.795,��쓌,1.1,�L
2018/08/27,07:50,0.867,1.271,0.895,1.602,1.169,0.476,0.843,0.796,��,1.4,�L
2018/08/27,08:00,0.865,1.265,0.894,1.600,1.168,0.475,0.842,0.793,���k��,0.8,�L
2018/08/27,08:10,0.863,1.263,0.895,1.600,1.164,0.476,0.843,0.793,�쓌,0.9,�L
2018/08/27,08:20,0.863,1.264,0.895,1.602,1.165,0.475,0.845,0.795,�쐼,0.6,�L
2018/08/27,08:30,0.865,1.265,0.893,1.600,1.166,0.473,0.843,0.795,�k��,0.9,��
2018/08/27,08:40,0.865,1.264,0.893,1.598,1.166,0.474,0.843,0.795,���k��,0.9,�L
2018/08/27,08:50,0.864,1.259,0.890,1.599,1.165,0.474,0.844,0.794,���k��,0.6,�L
2018/08/27,09:00,0.858,1.244,0.889,1.595,1.160,0.472,0.841,0.795,�k�k��,3.8,�L
2018/08/27,09:10,0.851,1.227,0.882,1.583,1.146,0.471,0.837,0.790,��,1.7,�L
2018/08/27,09:20,0.845,1.221,0.878,1.575,1.139,0.470,0.835,0.787,��쓌,5.1,�L
2018/08/27,09:30,0.842,1.211,0.874,1.567,1.132,0.468,0.833,0.786,-,CALM,�L
2018/08/27,09:40,0.839,1.212,0.871,1.564,1.131,0.468,0.832,0.788,��,0.8,�L
2018/08/27,09:50,0.841,1.209,0.871,1.558,1.131,0.468,0.832,0.786,���쓌,1.9,�L
2018/08/27,10:00,0.839,1.209,0.868,1.560,1.127,0.468,0.833,0.785,��,1.7,�L
2018/08/27,10:10,0.838,1.211,0.870,1.560,1.127,0.468,0.832,0.785,-,CALM,�L
2018/08/27,10:20,0.835,1.208,0.868,1.559,1.127,0.468,0.830,0.786,���쓌,1.5,�L
2018/08/27,10:30,0.839,1.212,0.868,1.556,1.130,0.467,0.833,0.786,���쓌,2.3,�L
2018/08/27,10:40,0.838,1.210,0.869,1.558,1.129,0.468,0.833,0.785,���쓌,1.7,��
2018/08/27,10:50,0.839,1.212,0.871,1.558,1.132,0.467,0.831,0.786,���k��,1.5,��
2018/08/27,11:00,0.838,1.211,0.871,1.557,1.130,0.468,0.830,0.785,���k��,1.5,�L
2018/08/27,11:10,0.837,1.215,0.868,1.561,1.129,0.468,0.830,0.783,���k��,1.7,�L
2018/08/27,11:20,0.840,1.211,0.869,1.558,1.129,0.467,0.832,0.783,��,2.2,�L
2018/08/27,11:30,0.841,1.214,0.868,1.557,1.130,0.468,0.832,0.783,���k��,2.3,��
2018/08/27,11:40,0.841,1.215,0.870,1.559,1.132,0.468,0.832,0.784,���k��,2.3,��
2018/08/27,11:50,0.842,1.215,0.870,1.559,1.129,0.468,0.834,0.783,�k��,1.7,��
2018/08/27,12:00,0.841,1.221,0.869,1.559,1.131,0.468,0.833,0.785,�k��,2.6,��
2018/08/27,12:10,0.839,1.216,0.872,1.557,1.131,0.469,0.832,0.784,�k��,3.1,��
2018/08/27,12:20,0.839,1.218,0.872,1.557,1.131,0.467,0.832,0.784,�k��,3.3,��
2018/08/27,12:30,0.840,1.220,0.872,1.559,1.131,0.468,0.832,0.785,���k��,2.5,��
2018/08/27,12:40,0.842,1.217,0.870,1.559,1.134,0.467,0.832,0.784,�k��,2.3,��
2018/08/27,12:50,0.842,1.222,0.872,1.558,1.134,0.468,0.833,0.785,�k��,2.3,�L
2018/08/27,13:00,0.842,1.220,0.873,1.560,1.134,0.468,0.834,0.784,�k�k��,2.6,�L
2018/08/27,13:10,0.841,1.220,0.874,1.563,1.135,0.468,0.832,0.784,�k�k��,2.3,�L
2018/08/27,13:20,0.843,1.216,0.872,1.561,1.134,0.468,0.834,0.785,�k�k��,2.3,��
2018/08/27,13:30,0.841,1.217,0.873,1.559,1.135,0.468,0.833,0.785,���k��,2.6,�L
2018/08/27,13:40,0.841,1.216,0.872,1.562,1.135,0.468,0.832,0.784,�k�k��,2.8,�L
2018/08/27,13:50,0.842,1.219,0.872,1.559,1.134,0.467,0.833,0.786,�k��,2.3,�L
2018/08/27,14:00,0.842,1.220,0.875,1.562,1.138,0.468,0.833,0.786,�k��,2.0,��
2018/08/27,14:10,0.842,1.219,0.874,1.564,1.138,0.468,0.833,0.785,�k��,2.3,��
2018/08/27,14:20,0.842,1.216,0.873,1.562,1.138,0.469,0.834,0.786,�k��,2.0,��
2018/08/27,14:30,0.840,1.218,0.874,1.566,1.139,0.470,0.833,0.789,���쓌,1.5,��
2018/08/27,14:40,0.841,1.221,0.875,1.563,1.138,0.470,0.835,0.790,��,1.7,��
2018/08/27,14:50,0.842,1.221,0.876,1.564,1.139,0.468,0.834,0.789,��,1.7,��
2018/08/27,15:00,0.843,1.224,0.873,1.566,1.138,0.469,0.835,0.789,���쓌,1.9,��
2018/08/27,15:10,0.841,1.224,0.874,1.569,1.138,0.469,0.832,0.788,�쓌,2.2,��
2018/08/27,15:20,0.843,1.225,0.874,1.562,1.139,0.469,0.834,0.790,���쓌,2.2,��
2018/08/27,15:30,0.844,1.226,0.873,1.566,1.137,0.470,0.835,0.788,���쓌,1.4,��
2018/08/27,15:40,0.844,1.223,0.878,1.565,1.133,0.468,0.835,0.788,���쓌,1.7,��
2018/08/27,15:50,0.841,1.227,0.874,1.566,1.140,0.469,0.834,0.789,���쓌,1.7,��
2018/08/27,16:00,0.843,1.230,0.876,1.564,1.138,0.469,0.836,0.789,��,1.5,��
2018/08/27,16:10,0.843,1.225,0.876,1.565,1.140,0.468,0.836,0.789,���k��,1.5,��
2018/08/27,16:20,0.843,1.227,0.878,1.566,1.140,0.470,0.837,0.789,�k��,1.5,��
2018/08/27,16:30,0.843,1.226,0.875,1.569,1.139,0.471,0.837,0.789,���쓌,1.4,��
2018/08/27,16:40,0.843,1.226,0.876,1.566,1.138,0.470,0.838,0.789,��,1.2,��
2018/08/27,16:50,0.843,1.228,0.878,1.565,1.138,0.469,0.838,0.790,���k��,0.9,��
2018/08/27,17:00,0.845,1.230,0.877,1.567,1.143,0.469,0.836,0.789,���k��,0.9,��
2018/08/27,17:10,0.845,1.229,0.879,1.565,1.139,0.469,0.838,0.788,���k��,0.9,��
2018/08/27,17:20,0.844,1.229,0.876,1.567,1.141,0.469,0.835,0.788,���k��,1.2,��
2018/08/27,17:30,0.843,1.232,0.879,1.568,1.141,0.469,0.835,0.790,�k��,0.9,��
2018/08/27,17:40,0.845,1.230,0.877,1.567,1.141,0.469,0.838,0.789,�k��,0.9,��
2018/08/27,17:50,0.842,1.232,0.877,1.567,1.140,0.471,0.838,0.789,��,1.2,��
2018/08/27,18:00,0.846,1.232,0.878,1.568,1.145,0.469,0.835,0.790,���k��,0.6,��
2018/08/27,18:10,0.843,1.233,0.878,1.566,1.142,0.470,0.837,0.789,�k��,0.9,��
2018/08/27,18:20,0.844,1.232,0.879,1.565,1.140,0.473,0.836,0.790,�k�k��,0.6,��
2018/08/27,18:30,0.846,1.232,0.877,1.568,1.141,0.471,0.837,0.791,�k��,1.1,��
2018/08/27,18:40,0.847,1.230,0.878,1.568,1.141,0.472,0.838,0.790,�k�k��,0.9,��
2018/08/27,18:50,0.846,1.231,0.878,1.566,1.140,0.469,0.837,0.789,���k��,0.6,��
2018/08/27,19:00,0.843,1.232,0.877,1.568,1.139,0.471,0.838,0.790,���쓌,0.6,��
2018/08/27,19:10,0.846,1.234,0.879,1.569,1.141,0.472,0.835,0.790,���쐼,1.1,��
2018/08/27,19:20,0.846,1.234,0.878,1.565,1.139,0.471,0.835,0.790,��,1.1,��
2018/08/27,19:30,0.846,1.233,0.879,1.567,1.143,0.471,0.836,0.789,�k�k��,0.9,��
2018/08/27,19:40,0.845,1.232,0.880,1.568,1.141,0.472,0.836,0.789,�k,0.6,�L
2018/08/27,19:50,0.847,1.231,0.881,1.567,1.141,0.471,0.837,0.788,��쐼,0.8,�L
2018/08/27,20:00,0.845,1.232,0.879,1.566,1.144,0.469,0.835,0.790,��쓌,2.0,�L
2018/08/27,20:10,0.846,1.231,0.878,1.568,1.142,0.472,0.837,0.789,��,2.3,�L
2018/08/27,20:20,0.846,1.236,0.877,1.566,1.140,0.471,0.837,0.790,��,1.5,�L
2018/08/27,20:30,0.844,1.233,0.880,1.569,1.141,0.472,0.836,0.789,�쓌,1.4,��
2018/08/27,20:40,0.846,1.232,0.880,1.568,1.142,0.472,0.836,0.790,��,1.1,��
2018/08/27,20:50,0.844,1.232,0.878,1.568,1.143,0.471,0.834,0.790,��쐼,1.2,��
2018/08/27,21:00,0.844,1.232,0.876,1.567,1.143,0.471,0.835,0.790,��쐼,2.0,��
2018/08/27,21:10,0.846,1.235,0.879,1.567,1.141,0.472,0.836,0.788,�쐼,1.2,��
2018/08/27,21:20,0.849,1.234,0.880,1.569,1.141,0.473,0.837,0.790,��쐼,2.0,��
2018/08/27,21:30,0.845,1.234,0.880,1.565,1.141,0.472,0.838,0.790,��쐼,2.5,��
2018/08/27,21:40,0.845,1.234,0.879,1.569,1.144,0.471,0.837,0.790,�쐼,1.7,��
2018/08/27,21:50,0.845,1.235,0.879,1.566,1.144,0.472,0.837,0.789,�쐼,1.9,��
2018/08/27,22:00,0.846,1.235,0.878,1.570,1.141,0.472,0.838,0.790,�쐼,2.3,��
2018/08/27,22:10,0.844,1.235,0.881,1.570,1.141,0.473,0.835,0.792,�쐼,2.0,��
2018/08/27,22:20,0.846,1.232,0.880,1.569,1.142,0.473,0.837,0.793,�쐼,2.6,�L
2018/08/27,22:30,0.847,1.233,0.878,1.571,1.142,0.472,0.837,0.790,���쐼,3.4,�L
2018/08/27,22:40,0.844,1.232,0.879,1.570,1.142,0.471,0.837,0.790,���쐼,3.5,�L
2018/08/27,22:50,0.844,1.229,0.880,1.569,1.140,0.471,0.836,0.789,��,3.5,�L
2018/08/27,23:00,0.843,1.228,0.879,1.570,1.141,0.472,0.837,0.790,�k��,1.5,�L
2018/08/27,23:10,0.845,1.225,0.878,1.568,1.139,0.473,0.837,0.790,�k��,2.3,�L
2018/08/27,23:20,0.841,1.225,0.877,1.569,1.142,0.473,0.838,0.790,�k��,3.5,�L
2018/08/27,23:30,0.842,1.229,0.877,1.570,1.141,0.473,0.838,0.791,�k��,2.6,��
2018/08/27,23:40,0.845,1.228,0.880,1.570,1.139,0.472,0.838,0.791,�k��,2.6,��
2018/08/27,23:50,0.843,1.225,0.879,1.569,1.139,0.473,0.834,0.790,�k�k��,2.3,��
